User: anonymous   Login
Location: Table Mountain
(47.2500°N, 120.5778°W)
Time: 05:55:09
(UTC-07:00)
Language:

POLYITAN 1 - Orbit

View from above orbital plane
View from above orbital plane
View from above satellite
View from above satellite

Ground track
Ground track

The orbit data is extracted from the following two-line orbital elements,

1 40042U 14033AJ  19081.77670251  .00000358  00000-0  44479-4 0  9993
2 40042  97.9144   1.8664 0014429 344.4462  15.6309 14.88596376258150
Epoch (UTC): 22 March 2019 18:38:27
Eccentricity: 0.0014429
inclination: 97.9144°
perigee height: 592 km
apogee height: 612 km
right ascension of ascending node: 1.8664°
argument of perigee: 344.4462°
revolutions per day: 14.88596376
mean anomaly at epoch: 15.6309°
orbit number at epoch: 25815

The dashed part of the orbit path shows where the satellite is in the earth's shadow,  

DLR